Content
SEND FEEDBACK

Daily
Averages
Monthly
Summary
Israel

NAZARETH, ISRAEL


Home > Middle East > Israel
Elevation: 164 feet     Latitude: 32 40N     Longitude: 035 11E

WEATHER
 
SELECT A DAY
Number of Records: 20,703;   Date Range: 6/19/04 - 7/24/14
 
SHARE

PRINT THIS DATA

[ ← Previous Day ]
WEATHER ALMANAC - JANUARY 31, 2013
[ Next Day → ]
[ °C ]   °F
Weather ElementAverageHighLow
Temperature52.2 °F55.4 °F (2:50 pm)50 °F (9:20 am)
Dewpoint46.4 °F48.2 °F (2:20 pm)44.6 °F (8:50 am)
Humidity80.9 %88 % (7:50 pm)76 % (8:50 am)
Barometer29.73 in29.80 in (7:20 pm)29.68 in (8:50 am)
Wind Speed10.7 mph16.1 mph (8:50 am)
Weather ElementAverage
Visibility5.8 mi
Wind DirectionSSE (150.1 °)

Weather ElementTotal
Precipitation---
Heating Degree Days12.3 (Base 65)
Growing Degree Days2.7 (Base 50)
Averaged from 19 records on January 31, 2013
WEATHER CONDITIONS BREAKOUT
WIND DIRECTION BREAKOUT
WEATHER BY HOUR - JANUARY 31, 2013
[ °C ]   °F
Local TimeTemperatureDewpointHumidityBarometerVisibilityWind DirectionWind SpeedGust SpeedPrecipitationEventsConditions
8:50 AM51.8 °F44.6 °F76 %29.68 in6.2 miSSE (150°)16.1 mphOvercast
9:20 AM50.0 °F44.6 °F82 %29.71 in6.2 miSE (140°)16.1 mphRainRain
10:20 AM50.0 °F44.6 °F82 %29.71 in6.2 miSE (130°)15.0 mphRainLight Rain
11:50 AM50.0 °F44.6 °F82 %29.71 in6.2 miSE (140°)12.7 mphFogOvercast
12:20 PM51.8 °F46.4 °F82 %29.71 in6.2 miSSE (150°)10.4 mphFogScattered Clouds
12:50 PM53.6 °F46.4 °F77 %29.71 in6.2 miSSE (160°)13.8 mphFogOvercast
1:20 PM51.8 °F46.4 °F82 %29.71 in3.7 miSouth (170°)13.8 mphFogFog
1:50 PM51.8 °F46.4 °F82 %29.71 in3.7 miSSE (160°)13.8 mphFog-RainRain
2:20 PM53.6 °F48.2 °F82 %29.71 in4.3 miSSE (160°)12.7 mphMostly Cloudy
2:50 PM55.4 °F48.2 °F77 %29.71 in6.2 miSSE (160°)11.5 mphFogScattered Clouds
3:20 PM53.6 °F48.2 °F82 %29.71 in6.2 miSE (140°)8.1 mphRainLight Rain
4:20 PM51.8 °F46.4 °F82 %29.74 in5.0 miESE (110°)9.2 mphRainRain
4:50 PM53.6 °F46.4 °F77 %29.74 in6.2 miSE (140°)8.1 mphMostly Cloudy
5:20 PM53.6 °F46.4 °F77 %29.74 in6.2 miSouth (172°)5.8 mphRainLight Rain
5:50 PM51.8 °F46.4 °F82 %29.74 in6.2 miSouth (170°)6.9 mphMostly Cloudy
6:20 PM51.8 °F46.4 °F82 %29.77 in6.2 miSE (140°)4.6 mphMostly Cloudy
6:50 PM51.8 °F46.4 °F82 %29.77 in6.2 miSSE (160°)9.2 mphScattered Clouds
7:20 PM51.8 °F46.4 °F82 %29.80 in6.2 miSSE (160°)9.2 mphMostly Cloudy
7:50 PM51.8 °F48.2 °F88 %29.80 in6.2 miSE (140°)6.9 mphMostly Cloudy
Hourly data recorded from LLHA, located miles away from Nazareth, Israel







STORIES FROM OUR PARTNERS